This is the latest recevied weather packets stored in our database for station/object KF5JED-13. If no packets are shown the sender has not sent any weather packets the latest 10 day(s).
| Time | Temp. | Humidity | Pressure | Rain* | Wind** | Luminosity | Snow |
|---|---|---|---|---|---|---|---|
| 1778266252 | 27.22° C | 25% | 1011.3 hPa | 0 mm | - | 892 W/m² | - |
| 1778265949 | 27.22° C | 25% | 1011.1 hPa | 0 mm | - | 892 W/m² | - |
| 1778265646 | 27.78° C | 24% | 1011.2 hPa | 0 mm | - | 891 W/m² | - |
| 1778265343 | 27.22° C | 24% | 1011.3 hPa | 0 mm | - | 888 W/m² | - |
| 1778265038 | 26.67° C | 24% | 1011.3 hPa | 0 mm | - | 886 W/m² | - |
| 1778264734 | 27.22° C | 25% | 1011.3 hPa | 0 mm | - | 886 W/m² | - |
| 1778264426 | 27.22° C | 25% | 1011.5 hPa | 0 mm | - | 885 W/m² | - |
| 1778264121 | 26.67° C | 25% | 1011.2 hPa | 0 mm | - | 881 W/m² | - |
| 1778263819 | 26.67° C | 26% | 1011.8 hPa | 0 mm | - | 879 W/m² | - |
| 1778263515 | 26.11° C | 26% | 1011.8 hPa | 0 mm | - | 877 W/m² | - |
| 1778263212 | 26.11° C | 26% | 1011.7 hPa | 0 mm | - | 869 W/m² | - |
| 1778262908 | 25.56° C | 28% | 1011.7 hPa | 0 mm | - | 868 W/m² | - |
| 1778262606 | 25.56° C | 27% | 1011.8 hPa | 0 mm | - | 861 W/m² | - |
| 1778262303 | 26.11° C | 27% | 1011.7 hPa | 0 mm | - | 859 W/m² | - |
| 1778262001 | 25.56° C | 28% | 1012 hPa | 0 mm | - | 852 W/m² | - |
| 1778261697 | 25.56° C | 29% | 1011.6 hPa | 0 mm | - | 845 W/m² | - |
| 1778261393 | 25° C | 29% | 1011.9 hPa | 0 mm | - | 840 W/m² | - |
| 1778261090 | 25° C | 29% | 1011.9 hPa | 0 mm | - | 836 W/m² | - |
| 1778260786 | 25.56° C | 31% | 1012.1 hPa | 0 mm | - | 827 W/m² | - |
| 1778260484 | 25° C | 30% | 1011.9 hPa | 0 mm | - | 819 W/m² | - |
| 1778260180 | 24.44° C | 32% | 1012.1 hPa | 0 mm | - | 813 W/m² | - |
| 1778259877 | 24.44° C | 33% | 1012.2 hPa | 0 mm | - | 803 W/m² | - |
| 1778259574 | 23.89° C | 34% | 1012.3 hPa | 0 mm | - | 796 W/m² | - |
| 1778259272 | 23.33° C | 34% | 1012.3 hPa | 0 mm | - | 788 W/m² | - |
| 1778258967 | 23.89° C | 34% | 1012.3 hPa | 0 mm | - | 781 W/m² | - |
* Rain latest hour (hover to see other rain measurements)
** Current wind speed in m/s (hover to see current wind gust speed)